Flag for Germany Weather past 2 weeks in Greven, North Rhine-Westphalia, Germany

Now
50 °F

Passing clouds.


Feels Like: 46 °F
Forecast: 44 / 53 °F
Wind: 9 mph from Southwest

Location: Muenster / Osnabrueck

Current Time: Dec 18, 2014 at 5:10:19 AM

Latest Report: Dec 18, 2014 at 4:20 AM


Visibility: 4 mi

Pressure: 29.77 "Hg

Humidity: 94%

Dew point: 48 °F

Location of GrevenLocation

Historic Weather in Greven — Graph

°F

Greven temperature yesterday

Maximum temperature yesterday: 48 °F (at 6:20 PM)
Minimum temperature yesterday: 36 °F (at 12:20 AM)
Average temperature yesterday: 42 °F

Past Weeks' High & Low Weather Summary

 TemperatureHumidityPressure
High50 °F (Dec 12, 3:20 PM)100% (Dec 3, 4:50 AM)30.36 "Hg (Dec 3, 4:50 AM)
Low27 °F (Dec 3, 11:50 AM)70% (Dec 10, 4:50 AM)29.33 "Hg (Dec 12, 12:50 PM)
Average39 °F90%29.94 "Hg
* Reported Dec 3 3:20 AM — Dec 18 3:50 AM, Greven, Weather by CustomWeather, © 2014

Note: Actual official high and low records may vary slightly from our data, if they occured in-between our weather recording intervals... More about our weather records

Advertising

Greven weather history for previous 24 hours

 ConditionsComfort  
Time TempWeatherWind HumidityBarometerVisibility
3:50 AM
Dec 18
50 °FPassing clouds.7 mph94%29.77 "Hg4 mi
3:20 AM50 °FPassing clouds.8 mph94%29.77 "Hg4 mi
2:50 AM50 °FPassing clouds.7 mph94%29.77 "Hg4 mi
2:20 AM50 °FPassing clouds.9 mph94%29.77 "Hg4 mi
1:50 AM50 °FPassing clouds.9 mph94%29.77 "Hg4 mi
1:20 AM50 °FPassing clouds.8 mph94%29.77 "Hg4 mi
12:50 AM50 °FPassing clouds.7 mph100%29.77 "Hg4 mi
12:20 AM48 °FPassing clouds.8 mph100%29.77 "Hg4 mi
11:50 PM
Dec 17
48 °FPassing clouds.8 mph100%29.77 "Hg4 mi
11:20 PM48 °FPartly cloudy.9 mph100%29.74 "Hg4 mi
10:50 PM48 °FPartly cloudy.8 mph100%29.74 "Hg4 mi
10:20 PM48 °FPartly cloudy.7 mph100%29.74 "Hg4 mi
9:50 PM48 °FPassing clouds.7 mph100%29.71 "Hg4 mi
9:20 PM48 °FPassing clouds.7 mph100%29.71 "Hg4 mi
8:50 PM48 °FPassing clouds.7 mph100%29.71 "Hg4 mi
8:20 PM48 °FPartly cloudy.9 mph100%29.68 "Hg4 mi
7:50 PM48 °FPartly cloudy.8 mph100%29.68 "Hg4 mi
7:20 PM48 °FPartly cloudy.8 mph100%29.65 "Hg4 mi
6:50 PM48 °FPassing clouds.8 mph100%29.65 "Hg4 mi
6:20 PM48 °FFog.8 mph100%29.62 "Hg3 mi
5:50 PM46 °FDrizzle. Fog.8 mph100%29.62 "Hg2 mi
5:20 PM46 °FDrizzle. Fog.8 mph100%29.62 "Hg2 mi
4:50 PM46 °FDrizzle. Fog.9 mph100%29.59 "Hg2 mi
4:20 PM45 °FDrizzle. Fog.9 mph100%29.59 "Hg2 mi
3:50 PM45 °FDrizzle. Fog.9 mph100%29.56 "Hg2 mi
3:20 PM45 °FDrizzle. Fog.10 mph100%29.56 "Hg2 mi
2:50 PM45 °FDrizzle. Fog.12 mph100%29.56 "Hg2 mi
2:20 PM43 °FDrizzle. Fog.10 mph100%29.53 "Hg2 mi
1:50 PM43 °FDrizzle. Broken clouds.10 mph100%29.53 "Hg4 mi
1:20 PM41 °FBroken clouds.8 mph100%29.53 "Hg4 mi
12:50 PM41 °FDrizzle. Broken clouds.8 mph100%29.56 "Hg4 mi
12:20 PM41 °FDrizzle. Fog.10 mph93%29.56 "Hg2 mi
11:50 AM39 °FDrizzle. Broken clouds.10 mph100%29.56 "Hg4 mi
11:20 AM39 °FDrizzle. Fog.12 mph100%29.59 "Hg2 mi
10:50 AM39 °FDrizzle. Fog.10 mph93%29.62 "Hg3 mi
10:20 AM39 °FDrizzle. Broken clouds.13 mph93%29.62 "Hg4 mi
9:50 AM39 °FLight rain. Partly sunny.12 mph93%29.65 "Hg5 mi
9:20 AM39 °FLight rain. Partly sunny.10 mph93%29.65 "HgN/A
8:50 AM39 °FLight rain. Partly sunny.10 mph87%29.68 "HgN/A
8:20 AM41 °FLight rain. Passing clouds.9 mph81%29.68 "HgN/A
7:50 AM39 °FLight rain. Overcast.9 mph87%29.71 "Hg6 mi
7:20 AM39 °FPassing clouds.9 mph93%29.74 "Hg6 mi
6:50 AM39 °FClear.9 mph93%29.74 "Hg5 mi
6:20 AM39 °FPartly cloudy.9 mph93%29.74 "Hg4 mi
5:50 AM39 °FPassing clouds.8 mph93%29.77 "Hg4 mi
5:20 AM39 °FFog.9 mph93%29.80 "Hg3 mi
Weather by CustomWeather, © 2014

See weather overviewHow to use our weather pages